Location: Newark
(3.1475°N, 101.6933°E)
Time: 03:11:48
(UTC+00:00)

Hubble Space Telescope - Pass Details

Date: 20 October 2019
Orbit: 536 x 540 km, 28.5° (Epoch: 20 November)

Event Time Altitude Azimuth Distance (km) Brightness Sun altitude
Exits shadow 21:59:32 - 218° (SW) 2,147 3.6 -14.9°
Reaches altitude 10° 22:00:34 10° 213° (SSW) 1,779 3.2 -14.7°
Maximum altitude 22:04:14 31° 150° (SSE) 955 2.4 -13.8°
Drops below altitude 10° 22:07:53 10° 87° (E) 1,775 4.8 -12.9°
Sets 22:10:19 0° 76° (ENE) 2,664 5.7 -12.3°
